TimeCDT,TemperatureF,Dew PointF,Humidity,Sea Level PressureIn,VisibilityMPH,Wind Direction,Wind SpeedMPH,Gust SpeedMPH,PrecipitationIn,Events,Conditions,WindDirDegrees,DateUTC
12:53 AM,48.0,39.0,71,30.06,10.0,Calm,Calm,-,N/A,,Clear,0,2013-06-03 05:53:00
1:53 AM,43.0,37.9,82,30.06,10.0,Calm,Calm,-,N/A,,Clear,0,2013-06-03 06:53:00
2:53 AM,41.0,37.9,89,30.07,10.0,Calm,Calm,-,N/A,,Clear,0,2013-06-03 07:53:00
3:53 AM,39.9,37.9,93,30.06,10.0,Calm,Calm,-,N/A,,Clear,0,2013-06-03 08:53:00
4:53 AM,37.9,36.0,93,30.06,10.0,Calm,Calm,-,N/A,,Clear,0,2013-06-03 09:53:00
5:53 AM,37.9,36.0,93,30.06,10.0,Calm,Calm,-,N/A,,Clear,0,2013-06-03 10:53:00
6:53 AM,45.0,39.9,82,30.07,10.0,Calm,Calm,-,N/A,,Clear,0,2013-06-03 11:53:00
7:53 AM,52.0,37.0,57,30.07,10.0,East,6.9,-,N/A,,Clear,100,2013-06-03 12:53:00
8:53 AM,57.0,34.0,42,30.08,10.0,East,6.9,-,N/A,,Clear,90,2013-06-03 13:53:00
9:53 AM,59.0,32.0,36,30.08,10.0,ESE,10.4,-,N/A,,Clear,110,2013-06-03 14:53:00
10:53 AM,61.0,33.1,35,30.07,10.0,ESE,6.9,-,N/A,,Clear,120,2013-06-03 15:53:00
11:53 AM,62.1,34.0,35,30.08,10.0,Calm,Calm,-,N/A,,Clear,0,2013-06-03 16:53:00
12:53 PM,62.1,35.1,37,30.07,10.0,South,4.6,-,N/A,,Clear,170,2013-06-03 17:53:00
1:53 PM,62.1,35.1,37,30.05,10.0,SSE,5.8,-,N/A,,Clear,150,2013-06-03 18:53:00
2:53 PM,63.0,34.0,34,30.04,10.0,East,8.1,-,N/A,,Partly Cloudy,100,2013-06-03 19:53:00
3:53 PM,62.1,36.0,38,30.03,10.0,ESE,5.8,-,N/A,,Mostly Cloudy,110,2013-06-03 20:53:00
4:53 PM,62.1,36.0,38,30.02,10.0,ESE,4.6,-,N/A,,Overcast,110,2013-06-03 21:53:00
5:53 PM,61.0,37.9,42,30.01,10.0,East,5.8,-,N/A,,Overcast,100,2013-06-03 22:53:00
6:53 PM,59.0,41.0,51,30.04,10.0,East,4.6,-,0.00,Rain,Light Rain,100,2013-06-03 23:53:00
7:53 PM,59.0,39.0,48,30.03,10.0,East,10.4,-,0.00,,Overcast,100,2013-06-04 00:53:00
8:53 PM,57.0,39.0,51,30.04,10.0,ESE,5.8,-,N/A,,Overcast,120,2013-06-04 01:53:00
9:53 PM,57.0,37.9,49,30.05,10.0,ESE,5.8,-,N/A,,Overcast,120,2013-06-04 02:53:00
10:53 PM,57.0,39.0,51,30.04,10.0,SE,9.2,-,N/A,,Overcast,130,2013-06-04 03:53:00
11:53 PM,57.0,37.9,49,30.04,10.0,ESE,8.1,-,N/A,,Overcast,120,2013-06-04 04:53:00